Location: Melara
(45.0500°N, 11.1833°E)
Time: 00:11:00
(UTC+00:00)

UKube-1 - Pass Details

Date: 29 May 2024
Orbit: 581 x 590 km, 98.3° (Epoch: 21 June)

Event Time Altitude Azimuth Distance (km) Brightness Sun altitude
Rises 23:57:03 0° 21° (NNE) 2,816 ? -22.5°
Reaches altitude 10° 23:59:20 10° 29° (NNE) 1,910 ? -22.4°
Maximum altitude 00:03:13 39° 99° (E) 886 ? -22.3°
Enters shadow 00:03:38 37° 114° (ESE) 905 ? -22.3°
